GFSNE_prec_cthk_369.txt.gz
RH
39 38 38 40 40 41 44 44 45 45 44 42 48 52 53 54 56 57 56 56 56 58 60 61 61 65 64 62 65 67 68 70 72 73 74 76 75 75
54 53 52 52 52 52 52 54 54 55 54 53 57 61 65 66 66 64 62 63 63 65 63 65 66 69 66 66 71 70 70 68 67 67 69 67 68 67
72 71 70 67 64 64 64 60 60 60 61 57 60 63 66 66 65 67 66 65 67 70 72 71 73 76 74 70 71 70 70 64 60 59 60 61 58 60
80 82 80 76 74 71 67 65 68 69 68 63 64 65 66 68 69 69 66 63 65 70 75 72 74 71 62 62 62 61 60 57 53 49 48 47 49 51
84 86 84 79 75 72 72 74 74 77 76 76 84 77 81 83 80 77 79 77 75 74 75 70 63 58 54 50 45 42 41 40 39 39 39 40 40 41
84 86 84 81 80 80 83 85 88 90 93 91 93 94 91 87 87 83 83 80 76 73 66 59 48 44 42 42 42 43 42 41 41 42 42 42 43 46
83 88 90 94 95 95 96 98 97 99 97 93 98 93 91 85 85 82 78 72 69 60 55 50 44 44 44 45 43 41 41 42 42 41 41 41 42 40
94 94 93 92 94 95 94 93 97 98 97 93 94 94 90 89 83 76 65 58 54 50 43 45 44 44 44 43 42 42 42 41 40 38 36 33 31 26
86 84 83 84 86 89 90 90 92 95 97 95 93 93 92 83 75 66 62 53 47 45 42 40 42 41 43 42 42 41 40 39 36 33 28 23 19 17
79 80 79 80 81 86 85 89 90 93 95 95 95 94 87 82 72 62 54 49 48 46 43 40 40 38 40 42 43 42 40 35 30 24 20 18 17 19
82 84 84 87 89 91 97 97 94 98 92 94 91 89 80 69 62 55 53 50 47 46 44 43 43 40 40 41 42 38 33 29 23 19 18 21 27 30
92 90 90 93 95 97 95 98 98 97 97 92 77 68 63 60 56 53 49 48 47 48 50 48 48 45 39 39 36 32 28 22 21 23 28 28 27 26
93 98 99 92 91 92 93 93 91 83 72 64 60 57 55 53 51 50 50 52 52 54 54 49 44 41 40 36 32 27 26 26 29 29 27 26 25 26
97 97 98 93 96 86 75 65 59 57 55 56 55 53 52 53 54 55 56 58 56 53 50 47 42 38 36 33 31 30 30 30 29 27 26 24 22 22
95 90 84 76 70 63 60 57 57 56 57 57 56 58 59 61 63 64 61 58 54 50 46 43 39 37 36 37 34 33 31 30 31 30 29 25 23 23
83 76 69 64 61 60 60 59 58 60 61 64 66 68 69 68 63 59 57 53 50 46 43 38 39 40 39 39 37 34 34 38 35 32 31 27 25 26
64 65 64 64 64 65 67 69 71 72 73 75 72 67 64 62 58 53 52 48 45 41 43 45 45 44 42 39 36 37 35 33 32 32 31 30 28 30
64 64 68 71 75 77 78 82 80 75 71 68 65 61 58 57 54 51 47 46 48 50 49 48 46 43 39 37 38 37 33 32 31 30 31 32 30 31
72 74 81 86 87 85 78 73 70 67 64 60 60 55 54 54 54 58 57 55 53 51 50 48 47 45 43 38 34 35 33 31 30 31 35 36 35 34
92 95 91 82 69 63 62 63 64 63 61 58 59 62 65 64 63 60 57 54 51 49 48 48 47 45 44 42 36 30 35 36 36 35 35 37 37 37
73 62 60 61 63 64 64 65 69 70 70 69 68 68 66 63 61 58 55 53 51 49 47 47 46 45 42 39 36 32 33 38 44 46 43 43 40 38
61 59 62 66 67 71 74 76 76 73 71 71 70 67 64 61 58 56 54 51 49 49 47 45 44 43 41 42 41 40 37 37 40 42 45 51 50 44
70 72 73 73 77 80 78 75 73 72 70 68 66 64 61 58 55 52 51 48 45 43 43 43 44 45 44 45 46 43 40 40 41 39 39 46 51 54

GFSNE_prec_cthk_372.txt.gz
RH
42 40 41 40 38 36 37 39 43 45 44 44 46 51 54 56 58 61 63 64 65 65 65 63 66 65 65 63 64 67 67 61 61 63 62 57 53 50
51 49 49 45 46 48 49 50 52 54 54 54 55 57 60 63 65 66 66 66 69 68 70 73 69 70 71 68 67 66 61 59 59 56 54 51 49 48
60 63 64 65 65 65 64 66 65 65 65 61 63 65 66 66 68 67 67 69 75 78 83 82 79 77 75 72 60 55 52 48 45 41 40 39 38 37
71 75 77 79 78 76 75 74 72 72 68 67 70 71 71 73 78 81 80 85 87 85 84 87 84 82 71 62 51 46 44 41 39 39 40 38 37 37
81 82 81 82 82 84 84 78 71 68 70 76 80 86 87 88 91 92 91 89 89 90 87 84 74 68 60 54 46 43 43 42 40 38 36 36 37 36
84 82 82 83 86 89 85 81 83 88 89 89 88 96 95 93 94 94 92 93 88 87 84 76 66 60 52 48 46 45 43 41 39 39 40 39 37 35
81 82 82 80 84 88 91 91 90 90 90 96 89 90 91 94 93 93 91 88 92 81 78 74 63 54 51 49 47 44 43 43 42 42 39 36 33 31
84 82 83 88 91 94 93 89 85 83 85 85 88 88 87 89 89 93 91 85 84 80 76 69 57 53 52 49 46 45 44 44 42 39 36 34 30 26
89 87 88 88 89 86 84 80 79 86 85 90 91 95 96 95 98 95 94 88 77 70 60 57 54 51 47 46 46 46 45 43 41 37 34 30 27 23
86 84 88 86 84 81 84 85 86 86 88 96 93 98 98 97 97 97 90 75 69 59 54 49 46 44 45 48 50 49 46 44 38 34 31 28 26 24
95 93 90 87 87 85 88 90 93 92 97 94 95 96 96 94 84 76 70 64 59 54 51 49 47 46 48 49 51 48 45 42 37 31 29 27 27 27
93 91 90 91 90 90 95 95 98 99 93 93 92 86 80 69 60 56 54 53 53 52 52 53 53 50 46 46 47 44 40 36 32 31 31 31 30 28
97 95 96 90 97 95 97 98 97 95 85 79 72 60 53 53 53 52 53 54 54 55 56 55 52 49 47 42 40 40 36 34 34 33 33 31 29 27
95 97 95 92 99 98 96 92 83 75 68 65 58 56 55 55 56 57 58 59 61 61 57 54 52 50 46 41 38 37 37 38 36 34 31 29 28 26
98 98 97 99 87 85 83 77 67 64 62 61 60 60 59 60 61 66 66 63 59 57 55 52 50 47 46 44 43 41 39 37 35 33 31 29 27 26
97 97 95 82 74 72 69 67 64 61 60 63 66 67 69 72 68 64 60 58 55 54 54 49 48 48 49 50 47 42 41 38 34 32 31 29 27 27
93 87 80 71 72 70 68 66 68 69 68 74 76 73 68 63 61 59 57 57 57 55 56 57 57 54 51 48 44 43 39 36 33 32 30 28 27 27
78 75 72 71 71 70 71 71 74 77 75 72 68 63 63 60 59 59 58 57 61 61 59 56 53 49 47 44 44 40 37 34 32 30 30 32 27 27
73 74 73 75 74 76 78 81 77 71 64 61 62 62 63 63 61 64 65 63 61 58 56 53 52 50 46 42 38 38 35 31 30 29 30 32 32 30
75 77 81 84 88 83 74 67 60 59 63 64 67 69 69 67 66 65 62 59 56 54 52 52 50 47 44 42 35 29 32 33 32 30 28 30 31 32
86 89 84 73 64 59 62 64 66 70 72 73 71 68 66 65 64 61 58 55 52 48 43 40 38 38 39 37 32 28 27 32 37 40 37 37 37 32
77 67 64 64 66 66 68 74 76 75 74 70 67 65 64 61 58 55 49 42 36 32 30 31 32 35 38 38 36 33 30 30 32 36 41 46 49 48
68 68 69 71 74 76 77 78 76 71 67 66 65 63 59 52 43 36 31 29 29 28 30 31 34 38 39 40 41 40 38 38 38 35 36 45 48 50

GFSNE_prec_cthk_375.txt.gz
RH
42 43 44 43 42 43 42 42 39 37 37 41 47 53 56 59 63 65 63 63 63 61 61 63 63 67 68 70 70 71 70 66 60 53 48 47 45 40
49 46 45 46 45 46 46 49 47 52 53 56 58 63 67 69 70 70 71 72 71 73 74 73 80 81 77 75 73 72 68 62 54 45 43 41 40 39
60 56 55 59 57 60 62 65 63 63 66 67 71 71 73 71 74 77 79 85 84 87 91 87 86 88 86 81 78 70 63 54 47 43 43 41 40 39
70 66 65 67 68 72 75 77 77 77 74 75 74 71 69 76 86 88 89 90 93 94 94 93 93 92 88 78 70 62 55 49 47 45 43 41 39 36
74 70 69 73 75 79 82 84 84 83 83 81 74 83 88 90 94 92 89 93 95 98 98 98 93 85 78 72 68 60 56 51 47 45 44 40 38 37
74 75 74 78 81 82 84 85 87 87 86 86 87 87 89 89 86 89 87 89 92 93 96 91 86 84 81 71 67 62 56 50 47 44 41 40 39 39
74 76 78 79 83 80 81 84 83 87 90 90 90 85 82 82 77 85 90 92 95 95 94 92 91 85 76 64 58 55 52 47 45 43 42 41 40 38
71 75 72 74 76 76 80 83 87 91 92 90 79 79 80 84 83 87 87 93 95 93 97 85 76 71 66 59 55 51 49 48 46 44 42 40 38 36
77 70 74 80 83 82 81 83 83 89 85 83 85 84 88 89 92 90 94 94 93 86 81 75 69 59 56 56 54 52 50 47 46 44 42 39 37 35
73 77 84 84 84 85 81 81 85 84 87 95 90 90 93 96 97 97 92 88 83 73 59 54 51 50 51 52 53 51 50 49 47 43 41 37 34 32
80 84 90 95 88 91 97 94 99 91 93 88 87 98 95 97 96 86 74 67 61 51 48 45 45 48 53 55 56 53 49 46 44 42 40 36 35 34
92 92 90 85 87 95 97 96 91 95 86 96 98 97 90 81 72 66 59 54 54 50 51 51 51 50 48 51 52 50 48 44 44 42 40 39 38 35
89 91 93 87 96 99 97 97 99 98 96 97 91 82 73 66 61 56 55 54 56 56 55 54 52 49 47 45 48 48 46 44 43 43 42 41 37 34
91 89 94 88 99 97 99 98 99 94 89 78 74 66 62 61 58 57 58 60 62 62 56 50 48 48 49 46 45 47 46 46 43 40 38 35 33 32
99 97 97 97 97 98 99 95 91 81 74 68 63 58 57 59 62 62 66 62 59 54 51 51 50 49 48 48 46 44 42 41 41 38 34 33 31 29
97 99 97 98 96 97 89 78 74 70 67 62 61 66 65 67 66 64 62 56 54 54 53 49 50 51 51 50 47 44 43 41 37 35 32 30 27 26
96 98 98 97 91 82 74 71 69 70 69 66 69 69 68 66 64 59 58 57 56 58 59 57 55 52 49 46 43 43 40 37 34 30 27 25 23 23
92 93 89 84 78 75 70 71 72 68 72 72 71 71 68 61 59 59 59 61 63 62 60 55 50 46 44 42 40 35 30 26 25 24 23 23 22 21
85 87 80 78 75 76 74 73 75 74 74 72 67 62 62 62 63 65 64 63 61 57 53 48 44 38 32 29 27 28 27 25 24 23 24 25 25 23
76 75 77 78 82 82 80 81 79 72 66 64 66 69 71 69 66 64 62 58 53 49 42 33 29 29 28 29 28 26 30 29 30 29 27 28 28 28
83 81 85 89 88 87 79 70 67 67 69 73 76 73 70 67 65 61 55 47 38 31 27 25 25 28 29 31 29 26 26 32 36 37 35 38 38 32
81 87 91 88 81 72 69 70 71 76 78 76 73 70 68 65 57 47 38 32 28 25 24 23 26 30 31 32 32 31 30 31 34 38 44 48 50 46
94 86 75 72 72 73 74 79 81 80 76 73 72 69 60 48 40 34 30 27 25 24 26 27 29 30 32 34 37 37 37 38 39 35 36 47 49 52

GFSNE_prec_cthk_381.txt.gz
RH
56 51 50 48 48 48 48 47 48 47 43 42 42 43 46 53 53 53 60 65 68 71 74 73 74 81 81 80 76 77 79 77 74 71 71 68 67 61
56 53 50 47 46 49 49 50 49 47 46 42 43 49 51 57 62 65 70 71 74 74 75 81 84 85 84 78 77 76 77 75 72 70 69 69 63 58
59 53 50 49 48 47 48 48 46 44 44 47 55 58 63 66 69 73 75 76 75 75 84 85 86 82 79 79 79 77 72 72 71 73 72 64 59 53
58 56 55 54 53 56 59 55 51 52 56 63 68 71 73 74 77 79 81 79 79 85 90 85 82 78 73 79 86 78 80 76 72 71 62 53 48 42
62 61 61 63 65 68 70 65 58 60 65 73 78 80 81 82 84 88 89 88 88 91 90 88 83 79 88 82 80 80 80 73 65 60 52 47 42 41
69 68 71 73 72 71 78 74 65 68 73 78 83 84 86 87 88 89 88 90 89 88 90 84 83 88 87 86 86 77 71 62 57 48 43 41 41 42
74 77 77 77 76 78 77 75 73 74 76 79 81 86 85 88 88 89 93 90 88 86 92 87 96 92 87 81 78 74 64 57 49 45 44 45 43 42
77 82 83 81 88 85 83 78 73 74 78 79 80 83 87 87 90 93 95 87 99 96 95 98 94 90 86 78 68 59 55 48 47 46 44 44 43 42
83 85 83 84 94 88 86 77 77 76 77 79 82 83 89 89 90 93 92 94 98 99 96 94 90 81 76 67 58 53 49 49 48 47 46 43 42 42
83 82 81 82 90 84 82 82 83 83 83 87 87 89 91 92 92 94 98 97 98 98 97 90 81 73 65 57 53 52 54 52 50 48 44 43 43 41
79 80 81 85 97 89 83 83 83 86 82 85 91 94 95 92 93 95 98 98 98 96 86 78 72 65 60 58 57 56 52 49 48 46 45 44 43 41
79 81 80 86 95 95 88 86 91 86 88 90 93 97 98 97 95 98 98 98 91 80 72 66 63 60 59 61 57 52 50 48 47 48 47 46 40 34
87 89 86 95 95 89 90 91 90 89 91 90 94 98 97 97 97 98 91 84 76 67 64 62 62 61 58 54 54 51 50 50 50 47 42 36 29 22
90 93 89 88 91 90 93 95 97 95 92 96 98 98 98 98 90 81 75 71 67 66 66 67 61 58 56 53 53 53 52 49 42 36 30 23 20 17
93 92 90 92 90 97 96 95 96 98 95 98 97 96 87 80 75 69 65 68 66 66 64 61 59 58 56 53 51 48 42 37 33 27 23 20 18 17
98 92 90 90 92 94 97 97 99 98 94 95 91 80 74 68 62 65 67 70 68 64 64 64 60 58 55 52 45 40 37 31 27 23 21 20 20 19
98 99 96 99 96 91 97 93 92 93 78 72 71 71 64 64 71 74 69 69 68 65 62 60 61 56 49 44 39 34 29 26 24 22 22 22 21 19
99 97 98 98 94 95 95 88 81 72 67 67 68 70 74 74 75 73 71 69 65 64 63 58 52 46 42 37 32 30 28 25 25 25 24 21 17 18
98 96 96 93 93 96 93 82 70 67 68 72 75 78 78 76 71 69 68 68 68 64 55 50 45 40 36 33 29 28 27 26 26 22 21 23 22 19
98 97 94 93 90 86 78 72 72 72 75 79 80 80 77 75 71 69 72 72 62 55 50 45 40 36 32 32 31 29 31 27 26 24 23 24 26 25
95 93 92 86 78 73 76 77 79 82 83 80 78 76 75 72 75 77 70 60 54 50 45 40 37 34 34 34 33 28 24 27 30 31 29 29 29 30
91 91 83 79 83 82 84 85 85 85 84 80 78 75 77 79 76 66 59 53 49 46 42 38 37 36 35 32 29 26 25 26 29 30 35 41 46 44
87 81 80 83 86 88 90 88 84 81 79 81 83 80 80 77 65 58 52 49 46 44 40 39 37 35 33 30 28 29 29 29 29 28 28 38 42 46